TimeEDT,TemperatureF,Dew PointF,Humidity,Sea Level PressureIn,VisibilityMPH,Wind Direction,Wind SpeedMPH,Gust SpeedMPH,PrecipitationIn,Events,Conditions,WindDirDegrees,DateUTC
12:15 AM,53.2,53.2,100,30.17,0.5,Calm,Calm,-,N/A,Fog,Fog,0,2014-05-11 04:15:00
12:35 AM,52.3,52.3,100,30.18,3.0,Calm,Calm,-,N/A,,Overcast,0,2014-05-11 04:35:00
12:55 AM,52.9,52.9,100,30.18,0.2,Calm,Calm,-,N/A,Fog,Fog,0,2014-05-11 04:55:00
1:15 AM,53.2,53.2,100,30.18,0.2,Calm,Calm,-,N/A,Fog,Fog,0,2014-05-11 05:15:00
1:35 AM,52.9,52.9,100,30.18,0.2,Calm,Calm,-,N/A,Fog,Fog,0,2014-05-11 05:35:00
1:55 AM,52.7,52.7,100,30.17,0.2,Calm,Calm,-,N/A,Fog,Fog,0,2014-05-11 05:55:00
2:15 AM,52.7,52.5,99,30.18,0.2,Calm,Calm,-,N/A,Fog,Fog,0,2014-05-11 06:15:00
2:35 AM,52.3,52.2,99,30.18,0.2,Calm,Calm,-,N/A,Fog,Fog,0,2014-05-11 06:35:00
2:55 AM,52.3,52.2,99,30.17,0.2,Calm,Calm,-,N/A,Fog,Fog,0,2014-05-11 06:55:00
3:15 AM,52.3,52.0,99,30.17,0.2,Calm,Calm,-,N/A,Fog,Fog,0,2014-05-11 07:15:00
3:35 AM,52.2,51.8,99,30.17,0.2,Calm,Calm,-,N/A,Fog,Fog,0,2014-05-11 07:35:00
3:55 AM,52.3,52.0,99,30.17,0.2,West,3.5,-,N/A,Fog,Fog,280,2014-05-11 07:55:00
4:15 AM,52.2,51.8,99,30.17,0.2,Calm,Calm,-,N/A,Fog,Fog,0,2014-05-11 08:15:00
4:35 AM,51.8,51.3,98,30.17,0.5,Calm,Calm,-,N/A,Fog,Fog,0,2014-05-11 08:35:00
5:15 AM,52.2,51.8,99,30.18,1.0,Calm,Calm,-,N/A,,Overcast,0,2014-05-11 09:15:00
5:35 AM,52.3,51.8,98,30.18,0.8,Calm,Calm,-,N/A,,Overcast,0,2014-05-11 09:35:00
5:55 AM,52.0,51.4,98,30.19,0.5,Calm,Calm,-,N/A,Fog,Fog,0,2014-05-11 09:55:00
6:15 AM,52.0,51.3,97,30.19,0.5,Calm,Calm,-,N/A,Fog,Fog,0,2014-05-11 10:15:00
6:35 AM,52.0,51.3,97,30.20,0.5,Calm,Calm,-,N/A,Fog,Fog,0,2014-05-11 10:35:00
6:55 AM,52.2,51.4,97,30.21,0.8,Calm,Calm,-,N/A,,Overcast,0,2014-05-11 10:55:00
7:15 AM,52.2,51.4,97,30.22,2.0,Calm,Calm,-,N/A,,Overcast,0,2014-05-11 11:15:00
7:35 AM,52.2,51.4,97,30.23,3.0,Calm,Calm,-,N/A,,Overcast,0,2014-05-11 11:35:00
7:55 AM,52.0,51.3,97,30.23,3.0,Calm,Calm,-,N/A,,Overcast,0,2014-05-11 11:55:00
8:15 AM,52.2,51.6,98,30.23,2.5,Calm,Calm,-,N/A,,Overcast,0,2014-05-11 12:15:00
8:35 AM,52.5,51.8,97,30.24,2.0,Calm,Calm,-,N/A,,Overcast,0,2014-05-11 12:35:00
8:55 AM,52.7,52.0,97,30.24,3.0,Calm,Calm,-,N/A,,Overcast,0,2014-05-11 12:55:00
9:15 AM,52.7,52.0,97,30.24,3.0,Calm,Calm,-,N/A,,Overcast,0,2014-05-11 13:15:00
9:35 AM,52.7,52.0,97,30.25,4.0,Calm,Calm,-,N/A,,Overcast,0,2014-05-11 13:35:00
9:55 AM,53.2,52.5,97,30.25,5.0,Calm,Calm,-,N/A,,Overcast,0,2014-05-11 13:55:00
10:15 AM,53.6,52.9,97,30.25,4.0,Calm,Calm,-,N/A,,Overcast,0,2014-05-11 14:15:00
10:35 AM,54.7,54.0,97,30.25,10.0,Calm,Calm,-,N/A,,Overcast,0,2014-05-11 14:35:00
10:55 AM,55.2,54.5,97,30.25,10.0,Calm,Calm,-,N/A,,Overcast,0,2014-05-11 14:55:00
11:15 AM,57.2,56.5,97,30.24,10.0,Calm,Calm,-,N/A,,Scattered Clouds,0,2014-05-11 15:15:00
11:35 AM,60.3,60.1,99,30.24,10.0,Calm,Calm,-,N/A,,Clear,0,2014-05-11 15:35:00
11:55 AM,62.6,61.0,94,30.23,10.0,Calm,Calm,-,N/A,,Clear,0,2014-05-11 15:55:00
12:15 PM,65.3,58.3,78,30.23,10.0,Calm,Calm,-,N/A,,Clear,0,2014-05-11 16:15:00
12:35 PM,68.9,57.7,68,30.22,10.0,Calm,Calm,-,N/A,,Clear,0,2014-05-11 16:35:00
12:55 PM,71.4,54.3,55,30.22,10.0,Calm,Calm,-,N/A,,Clear,0,2014-05-11 16:55:00
1:15 PM,73.2,53.4,50,30.21,10.0,Calm,Calm,-,N/A,,Clear,0,2014-05-11 17:15:00
1:35 PM,74.8,52.0,45,30.20,10.0,Calm,Calm,-,N/A,,Clear,0,2014-05-11 17:35:00
1:55 PM,76.6,52.3,43,30.20,10.0,Calm,Calm,-,N/A,,Clear,0,2014-05-11 17:55:00
2:15 PM,77.7,50.9,39,30.19,10.0,Calm,Calm,-,N/A,,Clear,0,2014-05-11 18:15:00
2:35 PM,79.0,50.4,37,30.18,10.0,Calm,Calm,-,N/A,,Clear,0,2014-05-11 18:35:00
2:55 PM,79.9,46.6,31,30.17,10.0,Calm,Calm,-,N/A,,Clear,0,2014-05-11 18:55:00
3:15 PM,80.2,47.1,31,30.17,10.0,Calm,Calm,-,N/A,,Clear,0,2014-05-11 19:15:00
3:35 PM,80.1,48.6,33,30.16,10.0,NNE,3.5,-,N/A,,Clear,30,2014-05-11 19:35:00
3:55 PM,80.8,51.1,35,30.15,10.0,ESE,3.5,-,N/A,,Clear,120,2014-05-11 19:55:00
4:15 PM,81.1,50.2,34,30.14,10.0,Calm,Calm,-,N/A,,Clear,0,2014-05-11 20:15:00
4:35 PM,81.5,48.9,32,30.14,10.0,North,4.6,-,N/A,,Clear,360,2014-05-11 20:35:00
4:55 PM,81.9,50.0,33,30.13,10.0,SW,5.8,-,N/A,,Clear,230,2014-05-11 20:55:00
5:15 PM,81.0,54.5,40,30.13,10.0,SW,5.8,-,N/A,,Clear,230,2014-05-11 21:15:00
5:35 PM,81.0,56.3,43,30.14,10.0,South,4.6,-,N/A,,Clear,190,2014-05-11 21:35:00
5:55 PM,79.2,55.4,44,30.13,10.0,Calm,Calm,-,N/A,,Scattered Clouds,0,2014-05-11 21:55:00
6:15 PM,79.3,54.7,42,30.13,10.0,South,3.5,-,N/A,,Scattered Clouds,180,2014-05-11 22:15:00
6:35 PM,78.6,57.9,49,30.14,10.0,SSE,8.1,-,N/A,,Clear,160,2014-05-11 22:35:00
6:55 PM,77.2,58.5,52,30.14,10.0,South,4.6,-,N/A,,Clear,180,2014-05-11 22:55:00
7:15 PM,76.3,58.8,55,30.14,10.0,SSE,8.1,-,N/A,,Clear,160,2014-05-11 23:15:00
7:35 PM,75.6,59.2,57,30.14,10.0,Calm,Calm,-,N/A,,Clear,0,2014-05-11 23:35:00
7:55 PM,74.5,59.2,59,30.16,10.0,SE,5.8,-,N/A,,Clear,130,2014-05-11 23:55:00
8:15 PM,73.4,59.0,61,30.16,10.0,Calm,Calm,-,N/A,,Scattered Clouds,0,2014-05-12 00:15:00
8:35 PM,72.9,59.0,62,30.17,10.0,SSE,5.8,-,N/A,,Overcast,160,2014-05-12 00:35:00
8:55 PM,72.7,59.0,62,30.18,10.0,East,5.8,-,N/A,,Overcast,100,2014-05-12 00:55:00
9:15 PM,72.5,59.0,62,30.20,10.0,Calm,Calm,-,N/A,,Overcast,0,2014-05-12 01:15:00
9:35 PM,71.2,59.9,67,30.20,10.0,East,4.6,-,N/A,,Overcast,80,2014-05-12 01:35:00
9:55 PM,70.0,59.9,70,30.22,10.0,ENE,3.5,-,N/A,,Overcast,70,2014-05-12 01:55:00
10:15 PM,67.6,60.1,77,30.23,10.0,ENE,4.6,-,N/A,,Scattered Clouds,70,2014-05-12 02:15:00
10:35 PM,65.7,60.8,84,30.23,10.0,Calm,Calm,-,N/A,,Clear,0,2014-05-12 02:35:00
10:55 PM,64.2,61.3,90,30.24,10.0,Calm,Calm,-,N/A,,Clear,0,2014-05-12 02:55:00
11:15 PM,63.0,62.6,99,30.25,10.0,Calm,Calm,-,N/A,,Clear,0,2014-05-12 03:15:00
11:35 PM,62.1,62.1,100,30.24,10.0,Calm,Calm,-,N/A,,Clear,0,2014-05-12 03:35:00
11:55 PM,60.8,60.8,100,30.24,7.0,Calm,Calm,-,N/A,,Clear,0,2014-05-12 03:55:00